User: anonymous   Login
Location: Unspecified
(0.0000°N, 0.0000°E)
Time: 04:47:49
(UTC+00:00)
Language:

Transit VBN-1 - Orbit

View from above orbital plane
View from above orbital plane
View from above satellite
View from above satellite

Ground track
Ground track

The orbit data is extracted from the following two-line orbital elements,

1   670U 63038B   18344.04985351  .00000028  00000-0  32385-4 0  9993
2   670  90.0585 328.9015 0040576 335.8122  91.3165 13.44300930705808
Epoch (UTC): 10 December 2018 01:11:47
Eccentricity: 0.0040576
inclination: 90.0585°
perigee height: 1063 km
apogee height: 1123 km
right ascension of ascending node: 328.9015°
argument of perigee: 335.8122°
revolutions per day: 13.44300930
mean anomaly at epoch: 91.3165°
orbit number at epoch: 70580

The dashed part of the orbit path shows where the satellite is in the earth's shadow,  

DLR